RH
12 14 16 17 19 19 20 21 22 23 23 22 22 23 24 25 26 27 27 26 24 22 21 20 20 20 20 20 21 21 20 20 20 19 18 18 19 19 20 22 23 23 23 23 23 23 22 22 21 21 21 21 21 21 20 20 20 20 20 20 19 20 20 20 20 20 20 21 21 22 23 23 23 25 27 29 33 36 37 38 39 42 43 42 40
12 13 14 15 16 16 16 17 19 20 20 21 22 22 22 22 23 24 25 25 25 25 24 23 22 23 23 22 22 22 21 20 20 19 19 18 18 19 20 21 22 23 24 24 24 24 23 23 22 22 22 22 22 22 21 21 21 21 21 21 20 20 21 21 21 21 21 21 22 22 23 23 23 24 26 28 32 36 40 43 44 44 46 47 46
12 12 13 15 16 16 16 15 16 17 17 18 20 20 20 20 20 21 23 24 25 25 25 24 23 23 23 23 22 22 21 20 19 19 18 18 18 19 19 21 22 22 23 23 24 24 24 23 23 23 22 22 21 21 21 22 22 22 22 22 21 21 21 21 22 22 22 22 23 23 24 24 24 24 25 27 32 37 42 46 48 48 48 48 49
11 12 13 14 15 16 17 16 16 16 15 16 16 17 17 18 18 19 21 22 22 23 23 23 23 22 22 22 21 21 21 19 19 19 18 18 18 18 19 20 20 21 22 23 22 22 23 23 23 23 22 22 22 22 22 22 22 23 23 23 23 23 23 23 23 23 24 23 24 25 25 25 24 24 25 28 33 40 47 50 52 53 53 52 50
9 10 11 12 14 15 16 16 16 15 15 15 15 15 15 16 17 18 19 20 20 21 21 21 21 21 21 21 20 20 19 18 18 18 18 18 18 18 19 19 20 21 21 22 23 22 22 23 22 22 23 23 23 22 22 23 22 23 24 24 24 24 24 24 25 25 26 26 26 27 27 26 25 25 27 31 38 44 50 54 56 58 60 59 55
10 10 11 11 13 14 15 15 15 14 15 15 15 16 16 15 16 17 18 19 19 19 19 19 19 19 19 19 18 18 17 17 17 17 17 18 18 19 20 20 21 22 23 23 24 24 24 24 24 24 24 24 24 24 24 24 24 23 24 24 24 25 25 25 26 26 27 27 28 28 28 28 27 28 31 37 44 50 53 56 60 63 63 61 55
9 10 11 11 12 13 14 15 15 14 15 16 17 18 18 16 16 16 16 17 19 19 18 17 17 17 17 16 16 16 16 16 16 17 17 18 19 19 20 22 23 24 26 27 28 29 29 29 29 28 28 28 28 28 27 27 27 27 27 27 27 27 27 27 27 28 29 29 30 30 30 30 30 32 37 44 53 58 59 60 65 71 68 55 42
9 11 12 12 12 13 13 13 14 15 14 16 18 18 18 17 15 15 15 16 17 17 17 16 16 16 15 15 15 16 16 16 16 17 18 19 20 22 23 26 28 29 31 32 33 35 35 36 37 37 36 35 34 34 34 33 33 32 31 32 32 32 32 32 32 32 32 32 32 33 33 33 35 38 44 53 63 68 67 68 73 81 77 53 31
16 11 11 13 12 12 15 14 13 15 15 15 16 16 16 16 14 14 14 14 15 16 16 16 16 16 16 16 16 16 16 18 18 19 21 22 24 26 28 30 32 34 36 37 37 38 40 42 45 47 48 49 49 49 50 51 51 51 50 47 45 44 45 47 48 48 47 46 44 42 41 41 42 46 53 62 73 77 75 75 82 90 86 61 34
41 24 13 16 18 13 13 16 15 15 16 14 15 15 15 15 15 15 15 14 15 16 16 17 17 17 18 17 18 19 19 21 22 23 24 25 25 26 27 29 31 32 34 35 36 36 38 40 44 49 53 58 63 68 73 79 83 84 82 80 77 75 76 76 76 75 73 71 67 62 57 55 54 55 60 68 78 83 82 81 86 92 87 65 41
80 63 37 34 41 31 15 11 12 13 13 11 11 12 13 14 15 16 17 16 17 18 19 20 20 19 20 20 20 21 23 23 25 26 25 24 23 22 22 21 21 23 24 26 28 29 31 32 34 38 43 48 54 62 71 84 94 100 103 103 101 98 97 98 98 96 95 93 90 86 79 72 69 66 66 70 78 85 86 85 87 90 84 64 43
100 91 75 72 82 71 40 18 11 9 10 10 8 7 8 11 13 14 16 17 19 20 21 21 23 23 22 23 22 22 23 25 25 24 22 20 18 17 17 16 15 16 17 18 19 21 23 24 24 25 28 30 32 36 42 51 63 76 89 100 105 104 104 107 107 103 102 102 101 100 97 90 82 75 71 71 76 83 85 83 83 87 84 67 48
102 100 96 94 98 90 63 39 25 15 11 10 9 10 9 8 9 10 11 14 18 21 22 22 23 24 21 19 19 19 21 22 21 19 17 15 15 14 14 14 13 14 15 14 15 16 17 18 19 19 20 21 21 23 23 25 29 35 46 60 73 84 93 101 106 105 102 102 102 102 103 100 93 84 77 74 75 77 78 79 82 87 86 72 55
104 105 97 93 99 95 78 61 44 27 19 15 10 11 11 9 9 8 7 11 14 16 18 19 20 20 18 15 14 15 16 16 15 15 14 13 14 14 13 13 13 13 13 13 14 15 16 16 17 17 18 19 20 21 21 22 22 22 23 27 34 43 50 64 88 103 101 98 100 100 101 104 103 96 85 77 76 78 79 82 87 90 89 78 64
100 105 97 94 100 103 97 86 64 42 37 38 31 23 19 14 11 10 8 8 10 10 11 14 15 16 14 12 11 11 11 12 12 12 13 13 13 14 13 12 12 12 12 13 13 14 15 16 16 17 17 18 19 21 21 22 22 21 22 22 22 24 23 32 67 100 105 101 101 102 102 104 103 99 91 84 86 90 92 95 98 96 92 85 77
96 103 104 98 95 101 108 102 82 59 58 73 79 69 53 35 20 15 11 8 8 8 9 10 11 11 11 10 11 10 9 11 12 11 12 13 13 13 12 12 11 11 11 12 13 14 15 16 16 16 17 17 18 20 21 22 22 22 22 22 21 23 20 21 44 73 82 81 82 83 89 94 93 93 91 88 92 99 102 103 104 102 98 94 91
98 103 105 100 97 99 101 98 89 71 64 83 103 103 91 74 49 28 16 11 10 8 8 10 9 10 12 11 10 11 10 10 11 11 11 12 12 12 12 12 12 11 11 11 12 14 14 15 16 16 16 17 17 18 19 19 21 21 22 23 22 22 22 21 26 35 37 39 40 41 49 60 66 71 72 69 75 87 96 103 105 104 103 100 97
98 102 102 100 100 99 95 95 95 78 59 71 97 105 103 101 87 57 27 13 12 10 8 11 11 10 12 12 11 11 11 11 11 10 11 11 12 12 11 12 11 10 10 11 12 13 14 14 16 16 15 16 16 17 17 17 19 21 22 24 23 22 22 22 22 22 21 21 22 22 24 29 33 36 39 40 45 56 71 88 99 103 102 99 97
98 102 103 99 99 100 96 98 103 88 60 61 88 103 101 103 103 84 49 20 11 11 9 10 12 12 12 12 11 11 11 11 10 10 10 11 12 12 11 11 11 10 10 11 11 13 13 14 16 16 15 16 16 16 17 16 17 21 22 24 24 23 23 22 21 21 21 20 20 20 20 21 21 23 23 24 27 32 43 56 66 74 81 85 88
100 101 103 99 98 102 101 99 105 97 67 56 82 103 101 99 104 99 72 39 18 12 11 11 12 12 12 12 12 11 10 11 10 10 11 11 11 12 12 11 10 9 10 11 11 12 13 14 16 16 15 16 17 16 17 16 16 18 21 22 23 23 23 22 21 21 20 20 20 20 20 19 19 20 21 22 24 28 31 33 35 44 57 66 72
101 101 103 101 98 101 104 101 103 99 70 52 74 100 102 98 102 102 92 70 42 19 13 15 14 14 15 13 12 12 11 11 11 10 11 12 12 12 11 10 10 9 10 11 11 11 13 13 14 16 16 17 17 16 16 17 16 16 18 20 22 23 22 22 21 21 20 21 22 22 21 21 20 21 22 23 26 27 26 26 30 39 51 57 63
104 100 100 102 99 100 104 100 100 101 79 52 62 90 103 100 99 101 102 95 72 38 19 18 18 16 17 16 14 14 14 14 14 12 12 12 12 12 12 10 10 10 10 11 11 11 13 13 14 16 18 18 18 18 17 17 17 16 17 19 21 22 22 21 21 21 21 22 24 23 22 21 21 22 23 24 25 24 24 27 34 44 52 57 65
103 101 99 102 101 101 103 98 96 100 90 66 57 75 96 101 98 100 101 101 91 63 34 26 27 23 21 20 18 18 17 17 18 17 15 14 12 12 13 11 10 11 11 11 12 12 13 14 14 17 20 20 18 18 18 18 19 18 17 18 19 19 21 22 21 22 22 22 23 22 21 21 20 20 20 20 20 20 20 23 30 36 43 50 58
95 101 101 101 101 100 100 102 104 104 98 84 66 67 90 102 99 100 101 100 100 82 52 39 40 36 30 27 25 26 25 22 22 22 20 18 16 14 13 12 11 12 12 12 13 14 14 16 16 17 19 21 19 18 19 19 18 19 20 21 21 19 19 20 22 22 22 22 22 21 20 20 20 19 19 18 18 19 18 18 21 23 25 30 34
84 96 104 103 101 101 97 101 109 109 105 97 76 65 85 103 99 100 103 100 100 92 70 58 59 53 45 40 35 33 33 29 26 26 25 23 21 18 16 14 12 12 13 14 15 16 16 17 19 20 21 21 21 21 20 19 18 22 29 33 32 28 23 21 22 22 22 22 22 22 21 21 21 19 19 19 19 18 18 16 17 18 17 18 20
86 95 105 103 99 100 99 99 103 104 104 102 84 67 82 103 102 99 103 101 100 95 81 72 73 66 57 53 43 37 39 38 31 30 32 29 26 23 21 20 16 14 15 16 15 17 20 21 23 23 21 23 25 25 23 20 22 35 51 56 53 47 37 28 25 25 25 25 24 23 21 21 21 20 19 19 18 17 17 17 17 17 17 17 18
97 100 106 106 101 101 101 100 101 101 101 104 96 80 84 102 104 99 101 102 100 99 90 84 85 78 63 56 48 39 42 44 35 30 36 38 34 30 27 27 24 19 17 17 16 18 22 25 27 26 24 26 30 33 31 25 31 54 74 75 70 65 55 42 35 34 33 32 31 31 28 25 23 21 19 18 18 17 17 17 17 17 19 18 16
96 102 106 105 101 102 103 100 100 102 101 101 101 90 86 98 104 100 100 102 99 100 99 95 98 91 70 56 50 43 43 47 37 27 32 40 40 37 33 32 31 28 23 19 19 22 25 28 30 31 31 32 37 42 40 32 39 65 80 75 72 72 68 58 48 44 46 45 38 35 34 30 24 22 19 17 17 17 16 17 18 18 18 18 19
77 95 105 101 94 96 103 101 99 103 103 100 98 86 76 90 107 103 98 102 100 99 100 100 100 95 76 59 51 44 43 48 40 26 29 41 45 43 38 32 31 32 29 26 26 27 28 30 33 35 36 38 43 51 48 38 42 60 69 71 76 78 77 72 59 54 63 65 53 48 49 40 29 24 21 19 21 22 22 21 21 21 21 22 26
54 80 97 99 95 95 98 100 101 104 103 100 100 83 56 66 101 109 99 102 101 92 92 94 91 87 80 68 58 49 45 49 47 35 31 38 42 37 30 23 23 26 29 33 38 39 37 38 40 41 44 47 53 60 56 41 39 48 58 73 88 91 87 82 70 65 75 76 66 64 66 56 42 31 24 25 34 42 45 43 38 40 43 40 35
47 70 89 96 97 94 95 99 99 98 97 99 107 95 56 46 80 103 96 94 95 89 86 86 81 81 81 74 68 60 48 43 47 42 32 31 36 40 41 43 46 48 47 49 56 60 59 57 57 58 60 61 63 68 63 46 38 44 55 76 97 101 96 93 84 79 84 85 79 76 74 70 65 58 54 60 65 63 66 72 70 65 62 54 44
55 62 78 89 90 89 95 100 92 89 96 102 108 105 73 45 59 88 92 87 90 92 92 87 79 76 74 69 66 58 37 26 37 48 48 53 65 75 82 85 85 84 83 83 84 82 75 70 70 73 75 74 74 75 70 54 44 44 53 74 96 99 95 98 97 90 87 86 85 86 87 90 91 91 95 103 100 88 84 89 88 77 65 54 45
69 58 63 76 81 83 93 101 93 87 97 103 103 107 94 63 55 75 90 91 91 95 96 92 83 75 70 67 59 40 21 30 60 80 84 89 95 98 101 103 99 98 100 101 99 91 78 70 73 79 83 85 86 86 78 63 49 44 52 74 96 99 95 99 104 102 96 91 84 77 79 87 93 97 104 110 110 106 102 98 93 84 70 56 46
70 64 58 65 74 81 90 99 97 94 99 102 99 104 103 82 62 65 80 92 100 101 99 97 91 84 83 79 59 26 13 36 70 83 80 79 81 87 97 103 101 100 102 104 102 95 84 79 81 86 89 92 94 93 87 73 56 48 58 79 96 99 97 99 102 102 102 103 93 72 60 69 82 88 93 100 104 108 107 101 96 87 70 57 50
46 58 58 58 65 77 91 99 98 98 102 102 98 101 102 87 66 56 62 77 92 98 97 97 94 89 83 70 44 17 9 19 31 34 34 35 43 63 90 106 106 103 103 101 98 93 91 93 95 94 95 100 101 98 95 89 73 57 59 76 91 95 93 94 96 95 95 102 100 73 48 55 74 80 83 92 99 106 108 103 91 78 66 59 56
20 37 48 52 53 62 81 95 98 102 105 97 89 97 102 89 68 51 42 47 58 64 66 70 72 68 55 37 19 12 12 12 11 11 12 10 13 36 71 96 105 107 103 96 93 94 94 96 96 90 89 99 104 98 95 100 96 76 60 63 82 98 98 92 92 91 82 83 90 75 47 46 67 81 86 95 104 110 109 96 77 66 63 62 60
13 16 27 42 46 49 63 80 88 99 106 89 71 78 93 98 91 71 43 30 36 39 34 31 34 33 25 16 13 12 9 9 10 11 10 6 12 43 82 101 102 100 96 90 91 91 85 82 82 76 75 87 98 99 98 102 103 91 71 62 74 96 104 98 96 95 80 68 72 70 49 40 56 75 87 100 109 107 94 76 64 60 62 62 62
23 14 12 24 32 33 43 56 64 83 100 86 57 49 60 76 88 80 51 30 33 39 30 18 15 16 12 12 22 28 28 37 51 54 44 25 15 38 77 95 90 88 87 83 83 83 81 84 83 74 72 85 98 104 103 98 93 94 90 82 84 97 106 103 101 103 98 87 81 73 55 46 52 64 75 90 99 91 73 61 57 55 55 56 56
31 24 12 12 16 15 20 29 37 58 81 77 53 38 34 37 49 55 43 28 27 33 29 17 13 14 10 12 27 38 43 64 91 101 93 69 39 26 37 52 66 80 84 82 85 85 78 77 75 67 70 88 102 105 100 90 89 99 102 95 93 99 103 103 104 103 102 102 98 81 60 48 47 52 65 80 83 72 59 53 50 47 46 45 45
33 30 17 12 14 11 12 15 18 30 45 47 37 29 24 22 26 34 34 25 18 19 20 16 13 13 10 12 20 19 22 52 90 104 102 100 90 72 53 49 66 85 79 67 70 67 49 42 52 62 75 93 103 102 92 83 87 102 105 98 96 96 96 102 108 103 99 103 101 82 60 47 43 51 64 69 60 48 43 42 41 41 40 39 40
31 31 22 16 15 13 12 14 15 17 21 23 21 18 16 17 19 24 28 27 18 13 14 13 11 11 12 15 17 17 31 68 101 106 99 102 108 102 87 78 86 88 63 39 37 37 26 27 44 62 78 94 98 91 85 84 91 102 106 102 100 98 98 104 106 100 99 104 99 80 61 49 44 47 54 53 46 42 43 42 40 40 41 42 45
28 29 23 18 16 14 14 15 16 16 17 17 16 15 14 14 15 17 21 24 20 14 13 13 12 11 12 14 17 27 51 82 102 104 103 106 106 104 102 101 97 83 58 44 51 58 53 49 52 60 75 91 95 90 89 95 101 102 100 97 95 95 99 103 101 98 102 105 97 83 71 61 51 47 48 49 51 53 54 51 46 44 43 44 47
25 25 21 16 14 14 15 15 16 16 16 15 15 15 14 14 13 13 15 17 15 13 13 13 12 12 11 11 13 18 33 58 83 97 103 107 107 106 105 103 95 82 66 61 70 77 73 65 65 71 81 90 95 95 94 95 98 101 99 96 95 97 99 100 98 99 102 103 99 95 90 81 70 61 55 51 49 50 52 52 51 49 45 42 44
20 22 19 15 13 13 14 15 15 16 16 16 16 16 15 15 14 13 13 13 13 13 13 12 12 12 11 9 10 10 13 34 68 93 101 102 105 108 106 99 88 75 65 58 58 62 63 65 74 88 94 93 96 100 98 90 89 96 101 102 104 105 103 99 97 100 103 103 101 99 98 98 94 87 79 72 63 53 47 45 46 47 45 42 46
14 15 13 13 13 14 13 13 14 15 16 17 17 16 16 16 15 14 14 13 12 13 13 11 12 13 11 9 11 10 10 28 62 88 94 95 101 107 106 92 71 57 60 72 81 85 85 85 92 101 102 97 96 101 102 96 92 95 100 103 103 99 93 90 94 102 105 103 100 97 98 102 103 100 97 93 83 68 55 49 51 56 56 54 59
10 10 10 11 12 13 13 14 14 15 16 17 18 18 18 18 16 15 15 14 13 12 13 12 12 13 12 12 13 9 9 29 64 88 94 96 103 103 92 74 58 55 68 86 95 97 99 101 100 99 96 94 95 98 100 99 97 97 98 99 98 96 94 97 104 109 106 99 96 98 100 102 104 103 102 99 92 81 70 64 64 66 66 68 71
10 9 10 10 11 13 14 14 14 15 17 18 19 20 20 19 19 18 17 15 14 13 13 13 14 16 16 15 15 12 12 31 69 98 105 99 88 71 56 54 64 74 82 87 92 97 102 103 101 98 97 98 98 97 97 101 104 102 98 97 98 100 102 105 108 109 105 98 95 96 97 100 103 103 99 96 93 87 78 73 73 76 79 80 78
11 11 11 11 11 12 13 13 14 16 17 18 19 21 21 21 21 20 20 19 18 17 16 15 17 20 19 17 16 14 10 17 41 67 75 64 46 33 42 70 95 99 92 90 95 102 106 103 98 98 103 104 100 97 99 104 105 100 96 97 100 101 104 107 106 104 102 99 97 97 99 101 100 97 93 92 89 82 74 73 79 85 87 83 78
10 10 11 12 12 12 12 13 14 15 15 16 18 19 20 21 22 22 22 22 20 18 18 17 16 17 19 17 17 18 15 12 16 23 28 35 46 58 73 94 104 100 95 98 100 101 104 105 101 99 101 103 101 101 100 96 91 89 91 97 100 101 104 105 102 98 98 100 100 101 103 103 99 96 93 89 83 76 74 76 79 79 76 74 76
9 9 11 13 14 13 13 12 12 14 15 16 17 17 18 20 21 21 23 25 24 22 21 20 17 17 17 15 14 15 13 11 11 10 14 39 79 105 109 105 100 94 93 100 102 100 101 102 101 101 102 101 98 98 95 87 84 90 97 101 103 104 104 101 98 96 99 102 101 102 103 103 101 96 90 83 77 73 72 71 67 61 60 68 80
8 7 9 11 13 14 14 13 12 14 15 15 17 18 17 17 19 21 22 24 26 25 24 22 18 18 18 17 17 17 13 11 12 9 6 25 66 93 93 88 92 96 94 94 96 99 101 100 98 100 103 99 93 95 97 93 92 98 104 104 104 103 102 99 98 99 99 99 100 101 102 102 102 97 89 81 74 68 63 61 58 56 61 73 84
Wind_Speed
34 33 32 32 32 31 30 30 29 28 27 26 24 22 20 19 19 18 18 17 17 17 16 15 14 14 13 12 12 12 12 12 12 12 11 10 10 9 9 9 9 9 9 10 11 11 12 13 13 13 13 13 13 13 14 15 16 17 18 19 19 20 20 21 22 22 22 22 22 22 23 23 22 22 23 23 23 23 23 23 23 22 22 22 22
33 32 32 32 32 31 31 30 30 29 29 27 25 24 22 21 20 20 19 18 18 18 18 17 16 16 16 16 15 15 14 13 13 12 12 11 10 10 9 9 9 9 9 10 10 11 12 13 14 14 14 14 14 14 15 15 16 17 18 19 20 21 21 22 22 23 23 23 23 23 23 23 23 23 24 24 24 24 24 24 23 23 22 22 22
32 32 32 32 32 32 31 31 30 30 29 28 27 26 24 22 21 21 20 20 19 19 19 19 18 18 18 18 18 18 16 15 14 13 12 12 11 10 10 10 9 9 10 10 11 11 12 13 14 14 15 15 15 15 16 16 17 17 18 19 20 21 21 22 23 23 24 24 24 24 24 24 24 24 24 24 24 24 23 23 23 23 23 22 22
30 31 33 33 33 33 33 32 31 31 29 28 27 26 24 24 23 22 22 22 21 21 21 21 21 20 20 20 20 19 18 16 14 13 13 13 12 12 12 11 11 11 11 11 12 12 13 13 14 15 15 16 16 16 17 17 17 18 18 19 20 20 21 21 22 23 24 24 25 25 25 25 25 25 24 24 24 24 23 23 23 23 23 23 23
29 29 30 31 33 34 34 33 33 32 31 28 27 26 25 25 25 24 24 24 23 23 22 22 22 21 21 21 20 20 19 17 15 14 13 13 13 13 13 13 13 12 12 12 13 13 13 14 14 15 16 16 17 17 18 18 18 19 19 19 20 20 20 21 21 22 23 23 24 24 25 25 25 25 25 25 25 24 24 24 24 24 23 23 23
27 27 27 28 30 33 33 33 34 33 31 29 28 28 28 27 27 26 27 26 26 25 24 23 22 21 20 20 19 19 18 17 16 14 14 14 14 14 14 14 14 14 14 14 14 14 14 15 15 15 16 17 17 18 18 19 19 19 20 20 20 21 21 21 21 21 22 22 23 23 24 24 25 25 25 25 25 25 25 25 25 25 25 24 24
25 24 24 24 26 29 31 33 33 32 30 29 29 29 29 29 29 28 27 27 27 26 25 22 20 19 19 19 18 18 18 17 16 15 15 15 15 15 15 15 15 15 15 16 16 16 16 16 16 16 17 17 18 18 19 19 20 20 20 21 21 21 21 21 21 21 21 22 22 23 23 24 24 24 24 25 25 25 25 25 25 26 25 24 22
24 22 22 23 24 26 27 29 30 30 29 28 29 30 30 31 30 28 27 27 26 26 24 21 20 19 18 17 17 17 17 17 16 16 16 15 15 15 15 15 15 15 16 16 16 16 17 17 17 17 18 18 18 18 19 19 20 20 21 22 22 22 23 23 22 22 22 22 22 22 23 23 23 23 24 24 25 25 26 25 26 26 25 23 20
22 21 21 22 23 24 25 26 27 28 28 28 28 29 30 30 29 28 27 27 25 25 23 21 20 19 17 16 16 17 16 16 17 16 16 16 15 15 14 14 15 15 16 17 17 17 17 17 18 18 18 18 18 19 19 20 20 21 21 22 23 23 24 24 24 24 24 24 24 23 23 23 23 23 23 24 25 26 26 26 26 26 26 24 21
23 23 23 24 25 27 28 28 29 29 29 29 29 29 29 28 28 27 27 26 24 23 22 21 20 18 17 16 16 16 16 16 16 16 16 16 15 14 14 14 14 15 16 17 17 18 18 18 18 18 18 18 19 19 20 20 21 21 22 22 23 23 24 24 25 25 25 25 25 25 25 24 24 24 24 25 26 26 27 27 27 26 26 26 24
30 30 28 26 27 29 30 30 30 30 30 29 28 27 27 27 27 27 26 25 24 23 23 22 20 18 17 16 16 16 16 16 16 17 17 16 15 14 13 13 14 14 15 16 17 18 19 19 19 19 19 19 20 20 20 20 21 21 21 22 22 22 23 23 24 25 25 25 25 25 26 26 26 26 26 26 26 27 28 28 28 27 26 25 24
36 36 34 31 32 32 30 28 27 28 28 27 25 23 23 24 26 26 26 26 25 24 24 23 21 19 18 17 17 16 15 15 16 16 16 15 15 14 13 13 13 13 14 15 15 17 18 19 20 20 20 20 21 21 21 21 21 21 21 21 22 22 21 22 23 24 25 25 25 25 26 26 27 27 27 27 28 29 29 30 30 28 26 25 25
41 42 40 39 38 35 31 29 28 27 28 27 25 23 22 23 24 24 24 24 24 25 25 24 22 21 19 18 16 15 15 16 16 15 15 14 14 14 13 13 13 13 13 14 14 15 16 18 19 19 20 21 21 22 22 22 22 22 22 22 22 22 22 22 23 24 24 24 24 25 27 27 27 27 27 28 29 31 31 31 30 28 26 25 25
45 47 45 42 41 38 34 33 31 30 29 28 27 26 26 25 23 21 21 22 23 25 25 24 22 21 20 17 16 15 14 15 14 14 13 14 14 14 14 13 13 13 13 13 14 15 16 17 18 19 20 21 21 22 23 23 23 23 23 23 23 23 23 23 23 24 24 24 24 26 27 27 27 28 30 31 32 33 32 31 30 29 26 25 25
47 49 49 46 43 41 38 37 35 34 32 31 30 29 28 27 25 22 21 21 22 22 22 22 22 21 19 17 16 14 13 13 13 13 13 13 14 15 15 15 14 14 14 14 14 15 16 18 19 20 21 21 22 23 24 25 25 24 23 23 24 24 23 23 22 23 24 24 25 26 27 28 28 29 31 32 33 33 33 32 31 29 27 25 25
49 50 51 50 46 43 41 39 38 36 35 35 34 32 30 29 26 23 22 22 21 21 21 21 20 19 17 16 16 14 12 12 12 13 13 14 15 16 17 17 16 16 15 15 15 16 17 18 19 21 22 23 23 23 24 25 26 25 24 24 24 24 23 22 23 24 26 26 27 27 28 29 30 30 31 31 31 31 31 31 31 30 28 27 27
53 52 52 51 47 43 41 40 39 37 36 36 38 36 32 30 27 24 24 24 23 22 22 21 19 17 17 17 17 16 14 13 14 14 14 15 17 18 19 19 19 18 17 16 16 16 18 19 20 21 23 23 23 24 24 25 25 25 24 25 25 24 23 23 24 26 28 29 29 30 30 31 31 32 32 32 32 31 30 30 30 30 29 29 30
55 54 53 51 47 43 41 40 40 39 37 37 39 38 35 32 29 27 26 25 24 23 22 21 20 19 18 18 18 17 16 16 16 16 15 16 18 20 21 21 21 21 19 17 17 17 18 19 21 22 23 23 23 24 24 24 24 23 24 25 25 24 24 24 26 27 28 29 30 31 31 31 32 32 33 33 33 32 31 30 30 31 31 32 33
55 56 55 53 49 46 44 43 43 42 40 38 39 40 38 35 32 29 28 27 26 25 24 23 23 22 20 20 19 19 19 19 18 18 17 17 19 21 22 23 23 22 21 19 19 19 19 20 21 22 23 23 24 24 25 25 24 23 22 24 25 24 24 26 27 27 28 29 30 30 30 30 31 32 32 33 33 33 32 32 31 32 33 33 34
57 57 57 55 52 50 48 46 45 43 42 40 40 40 39 37 34 32 31 30 28 27 26 26 25 24 22 21 21 21 21 21 20 20 19 18 20 21 23 25 25 23 22 21 21 21 21 21 22 23 24 25 25 25 26 26 26 24 23 24 24 24 25 26 27 27 28 28 29 30 30 30 30 31 31 32 33 33 33 34 34 34 34 34 34
59 58 58 57 55 53 51 49 46 45 44 43 41 41 41 39 37 34 32 31 30 29 29 28 27 26 25 23 23 23 23 22 22 22 21 21 22 22 24 26 26 25 24 23 23 22 22 23 23 24 25 26 26 27 27 28 27 27 25 24 24 24 25 26 26 27 28 28 29 29 29 29 29 30 31 31 32 33 34 34 34 34 34 34 34
62 61 60 59 58 55 53 50 47 46 46 45 44 43 43 42 40 37 34 33 32 31 30 30 29 28 27 26 25 24 23 22 22 23 23 23 23 24 26 27 27 27 27 26 25 24 23 24 24 24 25 27 27 28 29 29 29 28 27 25 24 24 25 25 26 27 28 29 29 29 29 28 29 29 30 30 32 33 33 33 32 32 33 34 34
66 63 62 61 60 58 55 51 48 49 49 48 47 47 45 44 44 42 38 35 34 34 33 32 31 30 30 29 27 26 24 23 24 24 25 25 25 25 27 28 28 28 28 29 27 26 25 25 25 24 26 28 28 29 30 30 30 29 28 27 26 25 24 24 25 26 28 29 29 29 28 28 28 29 30 30 31 32 32 32 32 32 33 34 35
68 66 65 64 62 60 58 54 52 53 52 50 49 49 47 46 46 46 43 38 35 35 36 34 32 32 32 31 30 28 26 25 25 26 27 27 27 27 28 29 29 29 30 30 29 28 27 27 26 26 27 29 29 30 31 31 31 31 30 28 27 26 25 24 24 26 27 28 28 28 28 28 29 30 30 30 31 31 32 32 33 34 34 35 36
71 69 68 67 65 63 61 60 59 57 55 52 51 50 49 48 47 48 47 43 38 37 38 36 34 34 34 33 32 30 28 26 26 27 28 29 29 29 29 30 30 29 30 31 30 30 29 28 27 28 29 30 30 31 31 32 33 33 32 29 28 27 26 25 25 26 27 27 26 27 27 28 29 30 30 30 31 32 32 33 34 35 36 36 37
73 72 70 69 67 65 64 64 64 61 57 54 52 52 51 49 48 48 48 47 43 40 40 39 37 36 37 37 35 32 30 28 27 28 29 30 31 31 31 31 30 30 31 32 32 31 30 30 30 30 31 31 32 32 32 33 34 33 32 29 28 27 26 26 26 26 26 25 25 25 26 27 29 29 29 30 31 32 33 33 34 35 36 36 37
74 73 72 71 69 68 67 67 67 65 62 58 55 54 52 51 49 48 49 49 47 45 45 43 41 40 40 40 38 35 32 31 29 30 31 32 32 31 31 32 32 31 32 33 33 32 31 33 33 33 33 33 33 33 33 33 33 33 31 29 28 28 27 27 26 26 26 25 25 25 25 26 27 28 28 29 31 32 33 33 34 35 36 36 37
76 74 74 74 72 71 70 70 69 68 66 63 59 57 55 53 50 49 50 51 51 50 49 48 47 45 43 41 39 37 35 34 33 32 33 33 32 31 31 33 34 33 34 35 33 32 33 36 37 36 35 35 35 35 34 33 33 33 31 29 29 29 29 29 28 27 27 26 26 26 26 27 27 26 26 27 29 30 31 33 34 35 36 36 36
82 78 77 76 76 75 74 73 73 71 69 66 63 60 57 55 53 51 51 51 52 52 53 52 51 48 45 41 39 38 39 39 38 35 34 35 34 33 33 35 35 35 35 36 34 32 35 40 41 39 38 37 36 35 34 33 34 34 33 31 30 30 31 31 31 29 29 29 29 27 27 27 26 25 25 25 26 28 30 32 34 34 35 36 36
87 84 81 80 79 78 76 75 75 74 71 68 66 62 58 57 56 55 53 53 54 55 55 54 53 50 46 43 42 41 42 43 40 36 36 38 38 36 37 38 38 37 37 36 34 34 37 41 43 42 40 38 36 35 34 33 34 35 34 33 32 31 31 31 31 29 28 28 27 26 25 25 24 23 23 24 25 28 31 33 34 34 36 38 38
91 89 86 83 81 79 77 77 77 77 73 70 67 64 61 60 60 59 58 56 56 57 57 56 55 52 50 49 47 46 45 44 40 38 39 40 40 40 41 40 40 41 39 37 36 38 39 41 43 43 41 38 36 35 33 33 34 35 37 36 35 32 30 30 31 30 28 27 25 24 23 23 22 22 23 25 29 33 35 36 37 37 39 39 39
94 93 91 88 85 81 77 77 79 79 76 71 67 65 65 65 64 62 61 59 58 58 58 58 57 55 54 52 49 47 46 44 41 39 40 40 41 42 40 37 38 40 39 38 37 37 37 38 40 42 42 40 37 34 33 33 35 37 39 40 39 36 32 31 32 33 33 33 32 31 29 26 23 23 25 31 39 43 42 42 43 43 42 40 40
97 96 95 92 89 84 80 78 80 81 78 73 68 67 68 69 68 65 63 61 60 59 60 59 58 56 55 51 48 47 47 44 41 40 40 39 39 40 38 34 34 36 38 38 37 34 32 32 35 38 40 41 39 35 31 32 35 37 38 41 40 37 34 32 31 31 31 33 35 36 34 28 24 24 27 36 46 52 52 50 49 49 47 45 44
99 99 97 95 91 87 83 80 80 81 80 75 70 68 70 71 71 69 66 64 63 62 62 61 59 58 55 51 49 48 48 46 43 42 42 42 42 42 41 37 34 34 37 38 37 36 34 31 32 35 37 40 40 36 32 33 36 36 34 34 34 33 32 31 29 28 28 29 31 32 28 22 20 22 27 37 50 59 60 58 55 54 53 52 49
102 101 100 97 94 91 87 84 82 81 80 78 74 72 71 71 72 72 70 68 67 66 65 64 62 59 56 52 51 51 50 48 46 45 45 45 45 44 43 40 35 34 36 38 38 40 39 36 35 36 37 38 40 38 35 35 37 36 33 31 31 31 30 29 29 29 29 27 25 26 26 22 21 22 26 36 49 59 63 63 61 58 58 57 54
104 104 102 100 98 95 92 89 86 84 83 81 79 77 75 74 73 72 71 70 69 69 68 66 64 61 57 55 54 53 52 50 48 47 47 46 46 45 45 43 39 36 36 38 39 41 41 40 40 40 40 40 41 39 36 34 35 37 38 37 35 32 29 28 29 31 31 29 25 23 26 28 25 24 29 38 47 56 63 67 65 61 59 58 57
106 107 106 104 101 99 96 95 92 90 87 85 83 82 82 80 77 75 73 72 71 72 71 68 65 61 59 57 56 56 54 52 51 51 50 49 46 44 44 44 42 40 41 42 42 41 41 40 41 42 43 44 44 42 38 36 36 38 42 42 40 37 34 33 34 35 34 32 29 27 28 29 27 28 33 40 48 57 66 70 67 62 60 59 59
108 109 109 107 105 102 99 98 96 95 93 90 87 86 86 84 81 78 76 75 74 74 72 68 64 61 60 58 57 56 54 52 52 52 52 51 48 46 46 46 45 44 44 45 44 44 44 43 43 43 44 45 46 45 41 38 38 40 43 42 42 42 42 42 42 42 39 35 34 33 32 30 29 32 37 45 53 61 67 67 64 61 61 61 61
110 110 110 109 106 104 102 100 99 98 97 94 92 89 88 86 84 82 80 79 77 76 73 69 65 63 62 60 58 56 54 53 51 50 50 51 51 51 52 52 49 47 46 46 46 46 46 46 45 43 41 42 44 43 41 40 41 42 42 41 42 45 48 48 49 49 46 41 38 38 37 35 35 38 43 49 55 60 63 62 61 62 62 62 62
113 112 111 109 107 105 103 102 101 100 99 97 95 93 90 88 86 85 84 83 81 79 76 72 69 68 65 63 61 59 57 56 55 52 50 50 51 53 54 53 50 47 46 46 46 47 46 45 43 40 39 40 41 40 41 44 46 44 43 42 44 48 51 53 54 52 48 44 42 43 43 41 40 42 46 51 54 57 60 62 62 63 63 63 62
116 115 113 110 108 107 105 104 103 102 100 99 97 95 92 91 89 88 87 86 84 81 78 76 74 72 68 65 63 61 58 56 56 55 52 51 51 51 51 50 48 46 45 46 48 47 45 44 42 39 38 40 42 44 46 47 48 47 46 46 47 49 51 52 52 49 45 43 46 46 46 45 44 46 50 53 55 57 59 61 61 62 62 61 61
118 118 116 113 111 109 108 106 105 103 101 100 98 96 95 94 93 91 90 90 87 84 81 78 77 74 71 68 65 62 58 55 56 56 55 53 51 49 48 48 47 46 45 46 48 47 44 42 41 41 41 41 43 46 49 50 51 51 50 47 46 48 50 50 49 47 47 49 51 49 48 49 50 50 53 55 56 57 58 59 59 60 61 61 62
119 119 118 116 114 112 111 109 107 105 103 101 100 99 98 97 96 94 94 93 90 87 83 81 79 77 75 72 69 65 61 60 59 59 59 58 55 53 51 51 49 48 48 49 50 49 46 44 43 44 44 42 40 42 49 56 58 56 52 48 46 48 52 53 53 53 54 54 54 53 53 55 56 55 56 57 57 58 59 58 58 59 62 64 64
120 119 118 117 116 114 113 111 109 107 104 102 101 100 99 99 98 97 96 95 92 89 86 83 81 79 77 75 72 69 65 64 63 61 60 60 60 59 57 56 55 54 54 54 53 52 50 48 47 46 45 42 36 35 43 53 55 54 56 58 58 59 61 61 59 58 56 54 55 58 60 60 59 58 57 56 57 57 58 58 58 61 65 66 64
122 120 119 118 117 115 114 113 111 109 107 105 103 102 101 100 99 98 97 96 93 90 88 85 82 80 79 77 75 72 69 66 65 63 62 62 63 62 60 60 60 60 60 58 55 52 50 50 49 47 46 43 37 34 39 46 52 55 60 63 62 62 62 60 57 55 54 54 57 61 61 59 57 56 56 57 58 58 58 58 61 64 66 66 64
123 121 120 119 117 116 115 114 113 111 109 107 105 104 103 101 100 99 98 97 94 91 88 85 82 80 79 77 76 74 71 69 67 64 62 62 62 61 61 62 63 63 61 58 56 55 52 50 49 49 47 43 38 36 39 45 51 56 59 60 59 61 63 63 59 55 53 56 61 65 64 61 60 61 61 61 61 60 60 62 64 65 65 65 65
124 122 120 118 117 117 116 114 113 112 110 109 107 106 105 103 102 101 99 98 95 92 89 86 83 80 78 78 77 75 72 70 67 64 61 61 62 64 65 66 65 63 62 61 60 60 57 52 51 51 49 44 40 41 46 50 54 55 57 59 63 69 72 70 65 58 55 58 64 67 66 65 66 67 68 68 66 65 65 66 65 64 65 66 69
125 123 120 119 118 117 116 115 114 112 111 109 107 106 105 104 104 102 100 98 96 93 90 87 84 81 79 78 77 74 72 72 72 70 67 66 68 69 68 67 64 64 65 66 65 63 58 51 48 51 52 48 44 44 49 54 57 58 58 59 63 69 71 69 65 61 60 62 66 69 70 72 73 74 74 73 71 69 67 66 65 65 67 70 74
126 125 122 120 119 118 117 116 114 113 111 109 108 106 105 104 103 102 100 98 96 94 92 90 88 86 83 81 79 77 76 76 75 70 66 67 71 71 69 67 67 65 65 65 64 61 55 48 47 51 55 52 45 43 47 52 55 56 57 59 63 67 69 69 68 67 67 70 73 75 77 77 76 75 73 71 69 68 68 67 67 68 72 77 82
127 126 124 122 121 120 119 117 115 113 111 109 108 107 105 103 102 100 98 96 94 93 92 91 90 88 87 85 84 82 80 78 75 68 62 65 72 75 71 69 67 63 59 57 55 52 48 47 50 53 53 47 42 42 47 50 54 59 61 63 65 67 69 70 71 71 71 70 71 72 72 72 71 70 69 68 68 70 71 72 74 77 81 86 91
126 126 125 123 122 122 120 118 116 113 111 109 108 106 104 102 100 98 96 94 92 91 90 90 90 89 88 86 85 83 81 79 77 72 66 66 72 76 75 71 66 59 54 53 52 49 47 49 53 53 49 42 39 42 46 49 54 60 64 65 66 68 70 73 75 75 73 70 68 67 67 67 67 68 70 71 73 76 78 80 83 87 90 94 97
Wind_Direction
214 211 209 209 210 211 212 213 214 216 220 223 224 224 223 224 228 233 238 243 249 255 260 265 273 282 290 298 305 311 318 323 328 332 335 336 338 340 341 340 339 339 337 334 330 328 326 326 326 327 330 333 335 337 337 339 341 344 346 348 351 353 355 356 357 359 0 2 2 2 2 2 2 1 1 1 1 360 360 0 359 357 355 354 353
218 215 212 212 213 214 215 215 215 216 219 223 225 226 225 225 227 231 235 241 247 254 260 267 273 280 287 294 299 304 308 314 319 323 325 327 328 331 332 332 332 331 331 330 328 326 324 323 323 323 324 324 325 326 327 329 332 335 338 340 342 345 347 348 348 350 352 353 355 356 357 357 356 355 356 357 357 357 358 357 354 351 350 349 346
219 217 215 215 215 217 219 220 219 219 220 222 224 226 228 229 231 233 236 240 245 251 258 266 272 278 285 290 295 298 302 306 311 315 317 318 319 320 321 322 323 323 323 323 323 322 322 322 322 322 323 323 323 323 324 325 327 329 331 333 335 338 339 341 342 343 345 346 348 350 351 352 352 351 352 353 353 354 353 351 348 347 346 345 343
219 218 218 218 217 218 220 223 225 226 226 227 228 230 232 234 237 239 241 243 247 251 257 264 271 277 282 287 291 294 298 301 305 309 310 311 312 313 315 316 317 318 319 319 319 320 320 320 321 321 322 324 325 326 327 327 327 328 329 329 331 332 334 336 337 339 340 342 343 345 346 347 347 347 348 348 349 349 347 345 344 344 343 341 340
221 220 220 220 221 220 222 225 228 230 231 233 236 239 241 242 244 246 248 250 252 254 258 263 269 275 280 284 288 291 293 297 300 303 305 305 306 308 312 314 316 318 319 319 320 320 321 321 321 322 323 324 325 327 328 329 329 329 330 330 330 331 332 333 335 336 337 338 340 341 342 342 343 343 343 344 344 343 342 341 340 340 340 339 336
223 222 221 222 224 225 226 228 232 234 235 237 240 245 248 250 251 251 251 254 256 257 259 263 267 273 278 281 284 287 289 293 297 300 301 301 303 307 311 314 316 318 320 321 322 322 322 322 321 322 322 323 324 325 326 327 328 328 328 329 329 329 330 332 333 334 335 335 336 337 337 337 338 338 338 339 339 338 338 337 336 335 335 335 334
226 223 221 222 225 228 230 232 235 238 239 240 243 246 250 253 254 254 254 254 255 257 259 262 266 270 275 278 281 284 286 291 295 298 300 300 303 307 311 314 317 318 319 320 321 321 321 321 321 321 321 321 322 323 323 324 325 325 326 326 326 327 327 329 330 331 332 333 333 333 333 333 333 334 334 334 334 333 333 332 331 330 331 332 334
230 227 224 222 223 226 230 234 238 240 241 243 244 246 249 252 253 254 254 252 252 254 256 259 263 266 271 276 279 282 286 290 294 297 299 301 303 306 310 313 314 315 315 315 315 316 316 317 317 318 319 320 320 321 321 321 321 322 323 323 323 324 325 326 327 328 329 329 329 329 329 329 329 329 329 329 329 328 328 328 328 327 326 329 333
232 230 226 224 223 223 225 230 234 237 239 240 241 243 246 249 251 252 252 250 250 251 253 254 257 261 266 272 276 280 284 287 291 294 296 298 300 302 305 307 307 308 308 308 309 309 310 310 311 312 314 316 317 318 319 319 319 320 320 320 321 321 322 323 324 325 326 326 326 325 324 324 323 323 323 323 323 323 324 325 325 324 324 325 330
224 230 229 225 223 220 218 219 222 226 229 230 232 235 238 242 246 249 251 251 251 251 252 252 252 255 260 265 269 273 278 283 286 288 290 291 294 298 300 302 303 303 303 304 305 306 307 307 307 307 308 309 311 312 313 315 316 318 318 319 319 320 320 321 323 324 324 323 322 321 319 318 317 317 318 318 318 319 321 322 323 323 321 321 325
213 219 225 227 228 225 220 219 220 222 225 226 226 225 226 228 233 240 246 248 250 249 249 249 249 250 253 257 261 265 270 275 279 281 283 287 291 295 300 303 304 306 306 307 308 308 309 309 309 308 307 305 305 305 306 307 309 312 314 316 317 318 319 321 322 322 321 320 319 317 315 314 313 313 314 314 315 316 318 320 322 322 320 318 319
219 216 217 221 229 231 228 224 224 227 229 231 231 228 225 222 222 227 233 238 241 244 245 246 246 246 247 249 253 257 262 266 270 274 279 285 291 296 300 305 309 312 313 313 313 312 311 311 311 311 310 308 306 304 303 303 303 304 306 308 311 314 317 320 321 320 318 317 316 313 311 310 310 310 310 311 312 315 317 319 321 321 318 317 316
226 222 217 216 220 225 227 225 225 228 230 232 236 238 236 232 227 225 227 228 231 236 239 239 239 241 242 244 246 250 254 258 263 270 279 286 292 297 300 304 308 312 314 316 317 316 315 314 314 314 313 310 309 307 306 304 303 302 302 302 303 306 310 314 317 316 314 313 312 310 309 309 309 309 310 312 313 315 316 317 318 318 316 315 315
223 226 223 220 218 218 221 224 224 225 226 227 229 234 239 241 240 237 234 230 229 231 234 234 234 236 240 243 244 245 248 254 261 270 278 284 290 293 296 300 304 309 313 316 319 319 318 318 318 317 314 312 311 309 308 307 306 306 305 304 303 303 304 307 310 310 309 309 309 309 309 310 310 311 312 315 316 316 316 316 316 315 314 314 314
219 224 225 224 222 219 218 220 221 222 223 223 223 227 234 239 242 244 243 239 236 236 236 234 233 235 239 244 247 248 249 253 260 268 274 280 284 287 291 296 301 306 310 315 319 321 320 320 320 318 316 316 315 314 311 310 309 310 310 309 307 306 306 305 303 303 304 306 308 310 311 311 312 314 315 317 318 318 317 316 316 315 315 314 314
217 221 223 223 223 222 221 220 221 221 223 224 224 224 229 234 238 243 246 245 245 245 243 240 238 239 244 249 253 255 254 254 258 265 270 275 279 283 288 294 299 303 308 313 318 321 321 321 321 320 319 320 321 319 315 313 313 314 315 313 311 309 309 305 299 295 296 298 301 304 306 307 309 311 314 318 320 320 319 318 317 316 316 316 317
217 219 221 222 222 223 223 223 223 223 224 227 228 226 227 230 234 240 244 246 247 247 247 247 247 248 249 251 255 258 259 258 258 263 268 273 278 283 287 292 297 301 306 312 316 319 318 319 321 321 322 324 324 321 318 316 316 317 318 316 313 312 312 306 298 294 295 296 297 299 301 302 304 307 310 313 315 316 318 318 317 317 317 317 318
219 219 221 221 220 222 223 226 228 227 226 229 232 231 229 230 233 236 240 245 246 246 247 247 248 249 249 251 256 260 261 261 263 265 268 273 277 282 287 291 295 300 306 311 313 313 314 317 320 321 323 325 323 320 318 317 316 318 318 316 313 314 312 304 298 298 299 300 301 302 302 303 305 306 308 309 309 310 311 313 313 313 314 315 316
220 221 221 220 219 221 224 227 229 229 228 230 234 234 231 232 233 233 235 240 243 245 246 245 244 244 245 250 255 259 260 263 266 269 271 272 275 280 286 290 293 298 304 309 310 309 312 316 318 320 322 325 323 320 319 317 316 316 315 312 311 312 309 303 301 303 304 304 305 306 306 308 308 308 308 308 308 307 306 305 305 306 307 309 311
219 221 221 220 219 220 223 227 229 230 229 230 233 235 233 231 233 233 232 235 239 243 246 247 245 243 243 246 251 255 259 262 266 270 273 273 275 279 284 288 293 299 303 306 307 309 312 315 316 319 322 324 323 321 319 317 317 315 312 309 309 309 305 303 304 305 305 306 306 306 308 310 310 310 310 309 308 305 303 303 304 304 304 305 306
217 219 220 221 220 220 222 227 231 232 232 231 232 234 232 230 231 234 234 235 238 240 243 246 247 246 245 245 249 254 259 263 266 270 272 273 275 279 283 288 294 300 304 305 307 310 313 313 315 318 320 321 321 320 319 318 318 318 315 311 308 306 304 304 306 306 305 305 305 307 310 313 313 313 313 310 306 304 305 307 307 305 304 303 304
216 217 219 221 221 222 223 228 233 235 234 233 233 234 232 230 231 234 237 238 238 238 242 245 247 248 248 248 250 255 261 266 270 272 273 274 276 279 283 288 295 301 303 305 308 311 312 312 315 317 317 316 317 318 318 319 319 320 319 315 309 306 305 305 306 305 305 305 306 309 313 316 316 315 312 309 308 308 309 310 308 305 304 303 304
216 217 218 220 222 222 223 228 235 238 237 234 234 235 233 231 232 235 238 239 238 237 239 243 246 248 250 251 252 256 262 267 271 274 276 277 278 280 284 289 295 300 302 304 308 310 310 311 314 314 311 310 313 315 317 319 321 321 320 316 312 309 306 305 304 304 304 304 307 311 316 318 315 312 310 311 311 312 312 310 308 306 306 305 305
218 217 218 220 221 222 222 225 231 236 237 234 233 234 233 232 233 235 237 239 238 236 236 240 245 248 251 254 256 258 261 266 270 274 276 279 281 283 286 290 295 298 300 303 306 307 308 310 311 309 306 306 310 313 315 317 319 320 319 316 312 309 306 304 303 302 302 304 308 313 315 315 312 310 312 313 312 311 311 311 311 310 309 309 309
219 219 219 220 221 221 222 223 226 231 233 232 232 233 233 232 233 234 235 238 240 238 235 238 245 250 254 257 258 260 262 265 270 273 275 278 281 283 286 289 294 298 300 301 303 304 307 308 307 304 302 304 307 310 312 314 317 319 318 314 311 308 306 304 303 302 302 305 309 311 312 310 309 310 312 312 311 311 312 312 312 312 313 313 313
220 220 220 220 221 221 222 224 227 229 231 231 231 232 232 232 232 233 234 236 240 239 236 239 246 252 257 259 260 261 264 266 270 273 274 275 278 281 284 288 292 295 297 297 299 302 304 305 302 300 300 302 305 307 309 312 316 317 316 314 311 308 305 304 302 302 303 306 307 306 306 306 306 308 310 310 310 311 313 314 314 314 315 316 317
219 220 220 220 221 222 222 224 227 229 230 231 231 231 231 230 230 231 232 235 239 240 240 243 249 255 259 261 262 263 265 267 270 273 272 271 273 279 284 286 288 291 292 293 297 301 302 299 296 296 298 300 303 306 308 311 314 313 313 314 312 308 305 303 302 302 303 304 303 301 302 303 304 305 307 308 311 313 315 315 316 316 316 317 319
218 219 220 220 221 222 223 225 227 228 229 230 231 231 230 230 229 229 229 233 238 241 243 247 251 254 259 261 261 264 267 266 267 270 270 270 273 278 280 281 283 287 289 292 296 300 298 294 293 293 296 299 302 305 307 310 310 309 309 312 311 308 304 302 300 301 302 301 298 298 300 302 303 304 305 308 312 315 316 315 315 315 317 318 320
218 219 220 220 221 223 224 226 228 229 229 230 230 230 230 230 230 230 231 234 238 241 244 246 248 251 256 258 258 261 264 263 263 268 271 271 272 273 276 278 282 285 287 290 295 297 294 291 290 292 295 299 302 304 306 307 307 306 307 308 307 307 307 306 303 301 301 300 298 299 301 302 303 304 306 311 317 319 319 318 318 318 319 320 320
218 219 219 220 221 222 224 227 228 229 230 230 230 230 231 231 231 232 233 235 238 241 243 245 247 249 253 254 255 258 261 261 262 266 270 271 272 276 280 283 285 284 283 286 290 290 288 288 290 292 294 299 302 303 303 304 304 304 304 304 304 305 308 311 309 304 302 302 302 303 304 304 304 305 308 315 323 327 326 325 322 320 321 321 320
218 218 219 219 219 221 223 226 227 228 229 230 230 232 234 234 233 233 235 236 238 241 244 246 248 249 249 250 253 257 261 263 264 268 272 276 281 285 288 291 291 289 286 285 284 283 285 288 291 292 294 297 300 302 303 302 300 301 302 302 300 299 302 309 312 309 307 308 309 310 309 306 306 312 320 327 332 331 329 327 323 318 318 320 319
218 218 219 219 219 220 223 225 226 227 229 230 230 232 234 235 235 235 236 237 239 242 244 247 248 248 248 250 254 260 265 269 271 273 277 283 288 292 295 299 301 299 295 290 286 286 290 295 296 294 293 295 298 301 302 300 296 295 298 301 300 297 298 307 313 312 310 309 310 310 312 318 327 329 324 323 327 329 328 324 320 316 314 316 317
218 219 219 220 220 220 222 224 225 226 228 230 231 232 233 233 234 235 236 237 239 241 243 246 248 249 251 255 260 265 269 272 273 274 277 282 286 290 294 300 304 303 298 292 290 292 299 305 305 300 296 295 297 300 301 295 289 290 297 304 304 302 302 306 309 309 311 314 314 311 310 315 326 324 309 304 312 320 323 320 316 313 312 312 314
218 220 220 220 220 220 221 223 225 226 228 229 230 232 232 233 233 234 235 236 237 239 241 244 247 250 254 258 262 266 268 270 271 272 275 278 280 282 286 291 296 297 294 292 293 294 298 304 309 308 302 296 295 297 296 289 284 286 297 308 312 308 304 300 297 299 307 316 323 325 320 305 291 289 292 295 299 307 313 314 311 310 310 310 310
219 220 221 221 221 221 221 223 225 227 228 229 230 231 231 232 233 234 235 236 237 239 241 244 247 250 254 257 261 264 266 268 270 271 274 276 277 278 280 283 285 287 288 290 291 292 293 299 305 309 308 301 296 295 295 291 287 284 287 297 307 309 304 297 292 294 298 304 314 326 326 310 283 270 280 290 291 294 302 307 307 308 309 308 308
220 220 221 222 222 222 222 223 225 227 228 229 230 230 231 232 233 235 236 238 239 241 243 245 247 250 253 255 258 260 262 264 266 269 271 274 274 276 277 277 276 277 281 285 288 291 294 296 298 300 303 301 296 295 297 296 291 284 277 279 290 302 305 301 296 293 293 292 293 301 309 308 295 275 275 283 283 284 292 301 304 305 306 305 306
222 222 222 223 223 223 223 224 226 227 228 229 230 232 233 234 235 237 238 240 241 243 244 245 248 251 254 257 259 261 263 265 268 269 269 270 272 272 273 272 273 276 279 282 285 289 292 294 293 294 296 294 291 292 295 294 292 287 278 275 282 292 299 303 301 296 292 287 285 290 298 300 290 274 269 272 274 279 288 297 300 301 302 302 303
223 223 223 223 224 224 224 225 226 228 228 229 231 233 234 236 237 238 240 241 242 243 244 245 248 251 255 257 260 263 265 269 271 271 269 269 269 267 266 268 273 279 281 280 281 285 289 291 292 294 294 292 288 289 291 292 290 287 282 281 283 285 291 297 298 295 291 286 284 288 292 291 287 281 273 269 272 280 288 294 297 298 299 299 300
222 223 223 224 225 226 226 227 227 228 229 231 233 234 235 236 238 239 240 242 244 245 245 247 249 252 255 256 258 261 264 267 269 269 269 269 269 268 268 270 274 277 279 278 280 283 287 289 291 294 295 294 291 288 287 286 284 281 281 282 281 278 282 290 293 290 286 284 285 287 287 284 282 281 276 274 277 284 289 292 293 294 295 296 298
221 222 223 224 226 227 228 229 230 230 231 233 235 236 237 238 239 240 241 243 244 246 248 249 251 253 254 256 257 260 261 262 264 266 269 270 270 270 270 271 271 274 277 278 279 281 284 287 290 293 293 290 288 287 286 284 283 282 282 283 281 277 278 283 286 284 281 283 287 288 287 284 280 277 277 280 283 286 287 287 288 289 292 294 296
220 221 222 224 226 227 228 230 231 232 233 234 236 237 238 239 240 241 242 243 244 246 248 250 251 252 254 255 257 259 259 259 260 262 265 270 272 271 270 271 272 275 278 278 278 280 283 284 287 289 288 283 282 285 287 287 287 288 286 285 284 282 280 282 282 278 275 282 291 291 287 285 283 280 280 282 282 282 282 283 285 288 291 292 294
221 222 223 225 226 227 228 230 231 233 234 235 237 238 239 239 240 241 242 243 245 246 248 249 250 252 253 254 256 257 258 257 257 258 261 266 271 273 273 274 276 278 279 280 280 281 283 282 283 286 287 284 284 287 288 288 289 290 288 286 283 280 277 278 278 273 273 284 293 293 290 289 287 284 281 280 279 280 282 283 286 288 290 291 293
221 222 224 226 226 227 228 229 230 232 234 235 237 238 239 240 240 242 243 244 245 246 247 248 250 251 252 253 254 256 257 257 256 256 258 262 267 271 274 276 278 280 281 281 281 281 281 280 282 284 285 285 288 291 289 287 289 291 290 285 280 274 272 275 276 274 278 288 295 296 295 292 288 285 282 281 280 281 283 285 286 288 290 291 293
221 222 224 226 227 227 227 228 230 231 233 235 236 238 239 240 241 242 243 244 246 246 247 248 249 250 252 253 254 254 256 257 257 256 257 259 263 268 271 275 278 280 281 281 280 280 280 279 280 281 281 281 282 281 280 282 284 285 283 282 279 276 276 277 276 276 280 288 294 296 294 290 286 285 284 282 283 284 284 286 287 290 292 293 293
221 222 224 226 227 228 228 229 229 231 232 234 235 237 239 240 242 243 244 245 246 247 247 248 249 250 251 252 253 253 254 255 256 256 257 259 262 266 270 273 275 276 278 279 280 281 281 279 277 276 276 276 272 264 262 266 269 270 274 280 283 282 280 278 275 277 284 290 292 291 287 284 284 285 284 283 284 285 284 286 289 292 293 293 292
222 222 223 225 227 228 229 229 230 231 232 233 235 236 238 240 241 243 244 245 246 247 247 248 249 249 250 250 251 251 252 253 255 256 257 259 262 266 269 271 273 274 275 277 279 281 281 278 274 272 272 271 267 256 250 251 254 258 264 269 270 269 270 270 272 278 285 287 285 283 281 281 283 285 284 284 285 284 285 288 291 293 293 292 291
223 222 223 224 226 228 229 230 231 232 232 233 234 235 237 238 240 242 243 245 246 247 247 248 248 249 249 249 249 249 251 252 253 254 255 260 264 267 269 270 271 272 274 276 278 279 279 274 271 271 271 268 263 256 248 246 247 248 250 253 254 254 257 262 268 275 278 276 274 275 277 279 281 283 283 284 284 284 287 290 292 292 292 292 293
224 223 223 224 225 227 229 230 231 232 233 234 234 235 236 238 239 240 242 243 245 246 247 247 248 248 248 247 247 248 251 253 253 253 256 261 265 266 267 268 269 272 275 277 277 277 276 270 266 268 269 267 264 259 253 250 248 245 242 244 247 249 252 258 265 269 270 269 271 274 277 279 280 281 281 282 283 285 289 291 292 291 291 293 296
225 224 223 224 225 226 228 229 230 232 233 234 235 235 236 237 238 239 241 242 244 245 246 247 247 248 248 247 247 249 251 252 253 253 257 261 263 262 262 264 267 272 278 279 277 274 269 261 256 259 262 262 260 258 256 254 252 248 244 242 244 247 252 259 265 267 269 272 275 277 278 278 279 279 279 280 282 286 289 291 291 291 294 297 300
225 225 224 224 225 226 227 228 229 231 232 233 235 236 236 237 238 239 240 242 243 244 245 247 248 249 249 250 250 251 252 252 252 251 251 255 260 262 263 263 266 271 276 276 273 269 264 257 252 253 254 253 251 252 255 253 250 247 245 246 248 252 258 263 268 271 275 276 276 276 275 275 275 275 276 279 283 287 290 291 292 293 296 299 302
225 225 225 224 224 225 227 228 228 230 231 232 234 235 236 237 238 239 240 241 242 243 244 246 248 249 251 252 253 253 252 251 251 250 247 248 254 261 265 266 268 271 273 270 264 260 259 258 256 254 250 243 240 243 248 250 249 247 248 251 256 262 267 270 273 275 274 272 269 268 269 269 271 273 276 280 285 288 291 292 294 296 298 301 302